owner,sensor,date,latitude,longitude,vertical_datum,sea_water_practical_salinity,qcFlag 
SCCF RECON,ioos:station:SCCF:12:1,2011-02-01T00:00:00Z,26.4966,-82.1479,2.14,32.59,1111122 
SCCF RECON,ioos:station:SCCF:12:1,2011-02-01T01:00:00Z,26.4966,-82.1479,2.24,32.8,1111122 
SCCF RECON,ioos:station:SCCF:12:1,2011-02-01T02:00:00Z,26.4966,-82.1479,2.33,32.86,1111122 
SCCF RECON,ioos:station:SCCF:12:1,2011-02-01T03:00:00Z,26.4966,-82.1479,2.39,32.88,1111122 
SCCF RECON,ioos:station:SCCF:12:1,2011-02-01T04:00:00Z,26.4966,-82.1479,2.413,32.89,1111122 
SCCF RECON,ioos:station:SCCF:12:1,2011-02-01T05:00:00Z,26.4966,-82.1479,2.39,32.84,1111122 
SCCF RECON,ioos:station:SCCF:12:1,2011-02-01T06:00:00Z,26.4966,-82.1479,2.31,32.78,1111122 
SCCF RECON,ioos:station:SCCF:12:1,2011-02-01T07:00:00Z,26.4966,-82.1479,2.171,32.71,1111122 
SCCF RECON,ioos:station:SCCF:12:1,2011-02-01T08:00:00Z,26.4966,-82.1479,2.02,32.66,1111122 
SCCF RECON,ioos:station:SCCF:12:1,2011-02-01T09:00:00Z,26.4966,-82.1479,1.88,32.67,1111122 
SCCF RECON,ioos:station:SCCF:12:1,2011-02-01T10:00:00Z,26.4966,-82.1479,1.76,32.68,1111122 
SCCF RECON,ioos:station:SCCF:12:1,2011-02-01T11:00:00Z,26.4966,-82.1479,1.658,32.73,1111122 
SCCF RECON,ioos:station:SCCF:12:1,2011-02-01T12:00:00Z,26.4966,-82.1479,1.58,32.37,1111122 
SCCF RECON,ioos:station:SCCF:12:1,2011-02-01T13:00:00Z,26.4966,-82.1479,1.6,32.65,1111122 
SCCF RECON,ioos:station:SCCF:12:1,2011-02-01T14:00:00Z,26.4966,-82.1479,1.755,32.66,1111122 
SCCF RECON,ioos:station:SCCF:12:1,2011-02-01T15:00:00Z,26.4966,-82.1479,1.9,32.66,1111122 
SCCF RECON,ioos:station:SCCF:12:1,2011-02-01T16:00:00Z,26.4966,-82.1479,2.01,32.61,1111122 
SCCF RECON,ioos:station:SCCF:12:1,2011-02-01T17:00:00Z,26.4966,-82.1479,2.095,32.29,1111122 
SCCF RECON,ioos:station:SCCF:12:1,2011-02-01T18:00:00Z,26.4966,-82.1479,2.142,32.25,1111122 
SCCF RECON,ioos:station:SCCF:12:1,2011-02-01T19:00:00Z,26.4966,-82.1479,2.139,31.91,1111122 
SCCF RECON,ioos:station:SCCF:12:1,2011-02-01T20:00:00Z,26.4966,-82.1479,2.107,31.81,1111122 
SCCF RECON,ioos:station:SCCF:12:1,2011-02-01T21:00:00Z,26.4966,-82.1479,2.062,31.65,1111122 
SCCF RECON,ioos:station:SCCF:12:1,2011-02-01T22:00:00Z,26.4966,-82.1479,2.035,31.52,1111122 
SCCF RECON,ioos:station:SCCF:12:1,2011-02-01T23:00:00Z,26.4966,-82.1479,2.039,31.37,1111122 
SCCF RECON,ioos:station:SCCF:12:1,2011-02-02T00:00:00Z,26.4966,-82.1479,2.095,31.22,1111122 
SCCF RECON,ioos:station:SCCF:12:1,2011-02-02T01:00:00Z,26.4966,-82.1479,2.188,31.2,1111122 
SCCF RECON,ioos:station:SCCF:12:1,2011-02-02T02:00:00Z,26.4966,-82.1479,2.3,31.23,1111122 
SCCF RECON,ioos:station:SCCF:12:1,2011-02-02T03:00:00Z,26.4966,-82.1479,2.42,31.25,1111122 
SCCF RECON,ioos:station:SCCF:12:1,2011-02-02T04:00:00Z,26.4966,-82.1479,2.48,31.15,1111122 
SCCF RECON,ioos:station:SCCF:12:1,2011-02-02T05:00:00Z,26.4966,-82.1479,2.5,31.19,1111122 
SCCF RECON,ioos:station:SCCF:12:1,2011-02-02T06:00:00Z,26.4966,-82.1479,2.439,31.18,1111122 
SCCF RECON,ioos:station:SCCF:12:1,2011-02-02T07:00:00Z,26.4966,-82.1479,2.32,31.17,1111122 
SCCF RECON,ioos:station:SCCF:12:1,2011-02-02T08:00:00Z,26.4966,-82.1479,2.17,31.4,1111122 
SCCF RECON,ioos:station:SCCF:12:1,2011-02-02T09:00:00Z,26.4966,-82.1479,2.03,31.46,1111122 
SCCF RECON,ioos:station:SCCF:12:1,2011-02-02T10:00:00Z,26.4966,-82.1479,1.902,31.47,1111122 
SCCF RECON,ioos:station:SCCF:12:1,2011-02-02T11:00:00Z,26.4966,-82.1479,1.783,31.44,1111122 
SCCF RECON,ioos:station:SCCF:12:1,2011-02-02T12:00:00Z,26.4966,-82.1479,1.713,31.41,1111122 
SCCF RECON,ioos:station:SCCF:12:1,2011-02-02T13:00:00Z,26.4966,-82.1479,1.679,31.28,1111122 
SCCF RECON,ioos:station:SCCF:12:1,2011-02-02T14:00:00Z,26.4966,-82.1479,1.768,31.47,1111122 
SCCF RECON,ioos:station:SCCF:12:1,2011-02-02T15:00:00Z,26.4966,-82.1479,1.924,31.48,1111122 
SCCF RECON,ioos:station:SCCF:12:1,2011-02-02T16:00:00Z,26.4966,-82.1479,2.048,31.29,1111122 
SCCF RECON,ioos:station:SCCF:12:1,2011-02-02T17:00:00Z,26.4966,-82.1479,2.14,31.41,1111122 
SCCF RECON,ioos:station:SCCF:12:1,2011-02-02T18:00:00Z,26.4966,-82.1479,2.184,31.42,1111122 
SCCF RECON,ioos:station:SCCF:12:1,2011-02-02T19:00:00Z,26.4966,-82.1479,2.205,31.28,1111122 
SCCF RECON,ioos:station:SCCF:12:1,2011-02-02T20:00:00Z,26.4966,-82.1479,2.163,31.47,1111122 
SCCF RECON,ioos:station:SCCF:12:1,2011-02-02T21:00:00Z,26.4966,-82.1479,2.099,31.58,1111122 
SCCF RECON,ioos:station:SCCF:12:1,2011-02-02T22:00:00Z,26.4966,-82.1479,2.03,31.71,1111122 
SCCF RECON,ioos:station:SCCF:12:1,2011-02-02T23:00:00Z,26.4966,-82.1479,1.97,31.75,1111122 
SCCF RECON,ioos:station:SCCF:12:1,2011-02-03T00:00:00Z,26.4966,-82.1479,1.93,31.77,1111122 
SCCF RECON,ioos:station:SCCF:12:1,2011-02-03T01:00:00Z,26.4966,-82.1479,1.96,31.72,1111122 
SCCF RECON,ioos:station:SCCF:12:1,2011-02-03T02:00:00Z,26.4966,-82.1479,2.05,31.66,1111122 
SCCF RECON,ioos:station:SCCF:12:1,2011-02-03T03:00:00Z,26.4966,-82.1479,2.177,31.64,1111122 
SCCF RECON,ioos:station:SCCF:12:1,2011-02-03T04:00:00Z,26.4966,-82.1479,2.29,31.58,1111122 
SCCF RECON,ioos:station:SCCF:12:1,2011-02-03T05:00:00Z,26.4966,-82.1479,2.37,31.75,1111122 
SCCF RECON,ioos:station:SCCF:12:1,2011-02-03T06:00:00Z,26.4966,-82.1479,2.36,32.03,1111122 
SCCF RECON,ioos:station:SCCF:12:1,2011-02-03T07:00:00Z,26.4966,-82.1479,2.28,32.23,1111122 
SCCF RECON,ioos:station:SCCF:12:1,2011-02-03T08:00:00Z,26.4966,-82.1479,2.16,32.17,1111122 
SCCF RECON,ioos:station:SCCF:12:1,2011-02-03T09:00:00Z,26.4966,-82.1479,2.024,32.12,1111122 
SCCF RECON,ioos:station:SCCF:12:1,2011-02-03T10:00:00Z,26.4966,-82.1479,1.9,32.1,1111122 
SCCF RECON,ioos:station:SCCF:12:1,2011-02-03T11:00:00Z,26.4966,-82.1479,1.79,32.1,1111122 
SCCF RECON,ioos:station:SCCF:12:1,2011-02-03T12:00:00Z,26.4966,-82.1479,1.701,32.09,1111122 
SCCF RECON,ioos:station:SCCF:12:1,2011-02-03T13:00:00Z,26.4966,-82.1479,1.63,32.09,1111122 
SCCF RECON,ioos:station:SCCF:12:1,2011-02-03T14:00:00Z,26.4966,-82.1479,1.642,32.09,1111122 
SCCF RECON,ioos:station:SCCF:12:1,2011-02-03T15:00:00Z,26.4966,-82.1479,1.767,31.92,1111122 
SCCF RECON,ioos:station:SCCF:12:1,2011-02-03T16:00:00Z,26.4966,-82.1479,1.915,31.87,1111122 
SCCF RECON,ioos:station:SCCF:12:1,2011-02-03T17:00:00Z,26.4966,-82.1479,2.036,32.02,1111122 
SCCF RECON,ioos:station:SCCF:12:1,2011-02-03T18:00:00Z,26.4966,-82.1479,2.122,32.09,1111122 
SCCF RECON,ioos:station:SCCF:12:1,2011-02-03T19:00:00Z,26.4966,-82.1479,2.17,31.98,1111122 
SCCF RECON,ioos:station:SCCF:12:1,2011-02-03T20:00:00Z,26.4966,-82.1479,2.16,32.06,1111122 
SCCF RECON,ioos:station:SCCF:12:1,2011-02-03T21:00:00Z,26.4966,-82.1479,2.07,32.08,1111122 
SCCF RECON,ioos:station:SCCF:12:1,2011-02-03T22:00:00Z,26.4966,-82.1479,1.969,32.07,1111122 
SCCF RECON,ioos:station:SCCF:12:1,2011-02-03T23:00:00Z,26.4966,-82.1479,1.9,32.05,1111122 
SCCF RECON,ioos:station:SCCF:12:1,2011-02-04T00:00:00Z,26.4966,-82.1479,1.889,32.03,1111122 
SCCF RECON,ioos:station:SCCF:12:1,2011-02-04T01:00:00Z,26.4966,-82.1479,1.92,32.02,1111122 
SCCF RECON,ioos:station:SCCF:12:1,2011-02-04T02:00:00Z,26.4966,-82.1479,2.01,32.01,1111122 
SCCF RECON,ioos:station:SCCF:12:1,2011-02-04T03:00:00Z,26.4966,-82.1479,2.15,31.98,1111122 
SCCF RECON,ioos:station:SCCF:12:1,2011-02-04T04:00:00Z,26.4966,-82.1479,2.281,31.93,1111122 
SCCF RECON,ioos:station:SCCF:12:1,2011-02-04T05:00:00Z,26.4966,-82.1479,2.38,31.96,1111122 
SCCF RECON,ioos:station:SCCF:12:1,2011-02-04T06:00:00Z,26.4966,-82.1479,2.412,31.93,1111122 
SCCF RECON,ioos:station:SCCF:12:1,2011-02-04T07:00:00Z,26.4966,-82.1479,2.373,31.97,1111122 
SCCF RECON,ioos:station:SCCF:12:1,2011-02-04T08:00:00Z,26.4966,-82.1479,2.269,32.02,1111122 
SCCF RECON,ioos:station:SCCF:12:1,2011-02-04T09:00:00Z,26.4966,-82.1479,2.14,32.15,1111122 
SCCF RECON,ioos:station:SCCF:12:1,2011-02-04T10:00:00Z,26.4966,-82.1479,2.01,32.13,1111122 
SCCF RECON,ioos:station:SCCF:12:1,2011-02-04T11:00:00Z,26.4966,-82.1479,1.9,32.15,1111122 
SCCF RECON,ioos:station:SCCF:12:1,2011-02-04T12:00:00Z,26.4966,-82.1479,1.799,32.15,1111122 
SCCF RECON,ioos:station:SCCF:12:1,2011-02-04T13:00:00Z,26.4966,-82.1479,1.703,32.14,1111122 
SCCF RECON,ioos:station:SCCF:12:1,2011-02-04T14:00:00Z,26.4966,-82.1479,1.662,31.99,1111122 
SCCF RECON,ioos:station:SCCF:12:1,2011-02-04T15:00:00Z,26.4966,-82.1479,1.742,31.93,1111122 
SCCF RECON,ioos:station:SCCF:12:1,2011-02-04T16:00:00Z,26.4966,-82.1479,1.9,31.98,1111122 
SCCF RECON,ioos:station:SCCF:12:1,2011-02-04T17:00:00Z,26.4966,-82.1479,2.013,32.01,1111122 
SCCF RECON,ioos:station:SCCF:12:1,2011-02-04T18:00:00Z,26.4966,-82.1479,2.09,32.02,1111122 
SCCF RECON,ioos:station:SCCF:12:1,2011-02-04T19:00:00Z,26.4966,-82.1479,2.118,32.07,1111122 
SCCF RECON,ioos:station:SCCF:12:1,2011-02-04T20:00:00Z,26.4966,-82.1479,2.101,32.18,1111122 
SCCF RECON,ioos:station:SCCF:12:1,2011-02-04T21:00:00Z,26.4966,-82.1479,2.043,32.17,1111122 
SCCF RECON,ioos:station:SCCF:12:1,2011-02-04T22:00:00Z,26.4966,-82.1479,1.957,32.2,1111122 
SCCF RECON,ioos:station:SCCF:12:1,2011-02-04T23:00:00Z,26.4966,-82.1479,1.878,32.2,1111122 
SCCF RECON,ioos:station:SCCF:12:1,2011-02-05T00:00:00Z,26.4966,-82.1479,1.83,32.2,1111122 
SCCF RECON,ioos:station:SCCF:12:1,2011-02-05T01:00:00Z,26.4966,-82.1479,1.803,32.21,1111122 
SCCF RECON,ioos:station:SCCF:12:1,2011-02-05T02:00:00Z,26.4966,-82.1479,1.839,32.2,1111122 
SCCF RECON,ioos:station:SCCF:12:1,2011-02-05T03:00:00Z,26.4966,-82.1479,1.933,32.18,1111122 
SCCF RECON,ioos:station:SCCF:12:1,2011-02-05T04:00:00Z,26.4966,-82.1479,2.076,32.16,1111122 
SCCF RECON,ioos:station:SCCF:12:1,2011-02-05T05:00:00Z,26.4966,-82.1479,2.207,32.17,1111122 
SCCF RECON,ioos:station:SCCF:12:1,2011-02-05T06:00:00Z,26.4966,-82.1479,2.29,32.18,1111122 
SCCF RECON,ioos:station:SCCF:12:1,2011-02-05T07:00:00Z,26.4966,-82.1479,2.32,32.2,1111122 
SCCF RECON,ioos:station:SCCF:12:1,2011-02-05T08:00:00Z,26.4966,-82.1479,2.27,32.25,1111122 
SCCF RECON,ioos:station:SCCF:12:1,2011-02-05T09:00:00Z,26.4966,-82.1479,2.16,32.28,1111122 
SCCF RECON,ioos:station:SCCF:12:1,2011-02-05T10:00:00Z,26.4966,-82.1479,2.03,32.27,1111122 
SCCF RECON,ioos:station:SCCF:12:1,2011-02-05T11:00:00Z,26.4966,-82.1479,1.93,32.28,1111122 
SCCF RECON,ioos:station:SCCF:12:1,2011-02-05T12:00:00Z,26.4966,-82.1479,1.84,32.29,1111122 
SCCF RECON,ioos:station:SCCF:12:1,2011-02-05T13:00:00Z,26.4966,-82.1479,1.75,32.3,1111122 
SCCF RECON,ioos:station:SCCF:12:1,2011-02-05T14:00:00Z,26.4966,-82.1479,1.69,32.27,1111122 
SCCF RECON,ioos:station:SCCF:12:1,2011-02-05T15:00:00Z,26.4966,-82.1479,1.723,32.28,1111122 
SCCF RECON,ioos:station:SCCF:12:1,2011-02-05T16:00:00Z,26.4966,-82.1479,1.874,32.24,1111122 
SCCF RECON,ioos:station:SCCF:12:1,2011-02-05T17:00:00Z,26.4966,-82.1479,2.03,32.25,1111122 
SCCF RECON,ioos:station:SCCF:12:1,2011-02-05T18:00:00Z,26.4966,-82.1479,2.137,32.29,1111122 
SCCF RECON,ioos:station:SCCF:12:1,2011-02-05T19:00:00Z,26.4966,-82.1479,2.194,32.28,1111122 
SCCF RECON,ioos:station:SCCF:12:1,2011-02-05T20:00:00Z,26.4966,-82.1479,2.2,32.28,1111122 
SCCF RECON,ioos:station:SCCF:12:1,2011-02-05T21:00:00Z,26.4966,-82.1479,2.139,32.17,1111122 
SCCF RECON,ioos:station:SCCF:12:1,2011-02-05T22:00:00Z,26.4966,-82.1479,2.05,32.29,1111122 
SCCF RECON,ioos:station:SCCF:12:1,2011-02-05T23:00:00Z,26.4966,-82.1479,1.952,32.27,1111122 
SCCF RECON,ioos:station:SCCF:12:1,2011-02-06T00:00:00Z,26.4966,-82.1479,1.871,32.25,1111122 
SCCF RECON,ioos:station:SCCF:12:1,2011-02-06T01:00:00Z,26.4966,-82.1479,1.82,32.25,1111122 
SCCF RECON,ioos:station:SCCF:12:1,2011-02-06T02:00:00Z,26.4966,-82.1479,1.81,32.25,1111122 
SCCF RECON,ioos:station:SCCF:12:1,2011-02-06T03:00:00Z,26.4966,-82.1479,1.851,32.28,1111122 
SCCF RECON,ioos:station:SCCF:12:1,2011-02-06T04:00:00Z,26.4966,-82.1479,1.961,32.2,1111122 
SCCF RECON,ioos:station:SCCF:12:1,2011-02-06T05:00:00Z,26.4966,-82.1479,2.115,32.29,1111122 
SCCF RECON,ioos:station:SCCF:12:1,2011-02-06T06:00:00Z,26.4966,-82.1479,2.209,32.28,1111122 
SCCF RECON,ioos:station:SCCF:12:1,2011-02-06T07:00:00Z,26.4966,-82.1479,2.241,32.17,1111122 
SCCF RECON,ioos:station:SCCF:12:1,2011-02-06T08:00:00Z,26.4966,-82.1479,2.195,32.17,1111122 
SCCF RECON,ioos:station:SCCF:12:1,2011-02-06T09:00:00Z,26.4966,-82.1479,2.132,32.23,1111122 
SCCF RECON,ioos:station:SCCF:12:1,2011-02-06T10:00:00Z,26.4966,-82.1479,2.05,32.31,1111122 
SCCF RECON,ioos:station:SCCF:12:1,2011-02-06T11:00:00Z,26.4966,-82.1479,1.96,32.3,1111122 
SCCF RECON,ioos:station:SCCF:12:1,2011-02-06T12:00:00Z,26.4966,-82.1479,1.88,32.3,1111122 
SCCF RECON,ioos:station:SCCF:12:1,2011-02-06T13:00:00Z,26.4966,-82.1479,1.826,32.29,1111122 
SCCF RECON,ioos:station:SCCF:12:1,2011-02-06T14:00:00Z,26.4966,-82.1479,1.777,32.34,1111122 
SCCF RECON,ioos:station:SCCF:12:1,2011-02-06T15:00:00Z,26.4966,-82.1479,1.744,32.27,1111122 
SCCF RECON,ioos:station:SCCF:12:1,2011-02-06T16:00:00Z,26.4966,-82.1479,1.803,32.18,1111122 
SCCF RECON,ioos:station:SCCF:12:1,2011-02-06T17:00:00Z,26.4966,-82.1479,1.946,32.19,1111122 
SCCF RECON,ioos:station:SCCF:12:1,2011-02-06T18:00:00Z,26.4966,-82.1479,2.071,32.22,1111122 
SCCF RECON,ioos:station:SCCF:12:1,2011-02-06T19:00:00Z,26.4966,-82.1479,2.15,32.26,1111122 
SCCF RECON,ioos:station:SCCF:12:1,2011-02-06T20:00:00Z,26.4966,-82.1479,2.18,32.21,1111122 
SCCF RECON,ioos:station:SCCF:12:1,2011-02-06T21:00:00Z,26.4966,-82.1479,2.157,32.28,1111122 
SCCF RECON,ioos:station:SCCF:12:1,2011-02-06T22:00:00Z,26.4966,-82.1479,2.082,32.36,1111122 
SCCF RECON,ioos:station:SCCF:12:1,2011-02-06T23:00:00Z,26.4966,-82.1479,1.98,32.36,1111122 
SCCF RECON,ioos:station:SCCF:12:1,2011-02-07T00:00:00Z,26.4966,-82.1479,1.89,32.36,1111122 
SCCF RECON,ioos:station:SCCF:12:1,2011-02-07T01:00:00Z,26.4966,-82.1479,1.82,32.36,1111122 
SCCF RECON,ioos:station:SCCF:12:1,2011-02-07T02:00:00Z,26.4966,-82.1479,1.78,32.36,1111122 
SCCF RECON,ioos:station:SCCF:12:1,2011-02-07T03:00:00Z,26.4966,-82.1479,1.79,32.36,1111122 
SCCF RECON,ioos:station:SCCF:12:1,2011-02-07T04:00:00Z,26.4966,-82.1479,1.87,32.33,1111122 
SCCF RECON,ioos:station:SCCF:12:1,2011-02-07T05:00:00Z,26.4966,-82.1479,2.0,32.28,1111122 
SCCF RECON,ioos:station:SCCF:12:1,2011-02-07T06:00:00Z,26.4966,-82.1479,2.111,32.31,1111122 
SCCF RECON,ioos:station:SCCF:12:1,2011-02-07T07:00:00Z,26.4966,-82.1479,2.19,32.35,1111122 
SCCF RECON,ioos:station:SCCF:12:1,2011-02-07T08:00:00Z,26.4966,-82.1479,2.21,32.36,1111122 
SCCF RECON,ioos:station:SCCF:12:1,2011-02-07T09:00:00Z,26.4966,-82.1479,2.18,32.36,1111122 
SCCF RECON,ioos:station:SCCF:12:1,2011-02-07T10:00:00Z,26.4966,-82.1479,2.1,32.36,1111122 
SCCF RECON,ioos:station:SCCF:12:1,2011-02-07T11:00:00Z,26.4966,-82.1479,2.01,32.35,1111122 
SCCF RECON,ioos:station:SCCF:12:1,2011-02-07T12:00:00Z,26.4966,-82.1479,1.92,32.33,1111122 
SCCF RECON,ioos:station:SCCF:12:1,2011-02-07T13:00:00Z,26.4966,-82.1479,1.85,32.33,1111122 
SCCF RECON,ioos:station:SCCF:12:1,2011-02-07T14:00:00Z,26.4966,-82.1479,1.813,32.33,1111122 
SCCF RECON,ioos:station:SCCF:12:1,2011-02-07T15:00:00Z,26.4966,-82.1479,1.828,32.33,1111122 
SCCF RECON,ioos:station:SCCF:12:1,2011-02-07T16:00:00Z,26.4966,-82.1479,1.91,32.36,1111122 
SCCF RECON,ioos:station:SCCF:12:1,2011-02-07T17:00:00Z,26.4966,-82.1479,2.03,32.36,1111122 
SCCF RECON,ioos:station:SCCF:12:1,2011-02-07T18:00:00Z,26.4966,-82.1479,2.131,32.36,1111122 
SCCF RECON,ioos:station:SCCF:12:1,2011-02-07T19:00:00Z,26.4966,-82.1479,2.221,32.38,1111122 
SCCF RECON,ioos:station:SCCF:12:1,2011-02-07T20:00:00Z,26.4966,-82.1479,2.26,32.43,1111122 
SCCF RECON,ioos:station:SCCF:12:1,2011-02-07T21:00:00Z,26.4966,-82.1479,2.28,32.47,1111122 
SCCF RECON,ioos:station:SCCF:12:1,2011-02-07T22:00:00Z,26.4966,-82.1479,2.23,32.45,1111122 
SCCF RECON,ioos:station:SCCF:12:1,2011-02-07T23:00:00Z,26.4966,-82.1479,2.151,32.45,1111122 
SCCF RECON,ioos:station:SCCF:12:1,2011-02-08T00:00:00Z,26.4966,-82.1479,2.049,32.45,1111122 
SCCF RECON,ioos:station:SCCF:12:1,2011-02-08T01:00:00Z,26.4966,-82.1479,2.023,32.45,1111122 
SCCF RECON,ioos:station:SCCF:12:1,2011-02-08T02:00:00Z,26.4966,-82.1479,1.904,32.45,1111122 
SCCF RECON,ioos:station:SCCF:12:1,2011-02-08T03:00:00Z,26.4966,-82.1479,1.831,32.45,1111122 
SCCF RECON,ioos:station:SCCF:12:1,2011-02-08T04:00:00Z,26.4966,-82.1479,1.795,32.48,1111122 
SCCF RECON,ioos:station:SCCF:12:1,2011-02-08T05:00:00Z,26.4966,-82.1479,1.853,32.42,1111122 
SCCF RECON,ioos:station:SCCF:12:1,2011-02-08T06:00:00Z,26.4966,-82.1479,1.96,32.4,1111122 
SCCF RECON,ioos:station:SCCF:12:1,2011-02-08T07:00:00Z,26.4966,-82.1479,2.048,32.41,1111122 
SCCF RECON,ioos:station:SCCF:12:1,2011-02-08T08:00:00Z,26.4966,-82.1479,2.105,32.38,1111122 
SCCF RECON,ioos:station:SCCF:12:1,2011-02-08T09:00:00Z,26.4966,-82.1479,2.093,32.37,1111122 
SCCF RECON,ioos:station:SCCF:12:1,2011-02-08T10:00:00Z,26.4966,-82.1479,2.055,32.39,1111122 
SCCF RECON,ioos:station:SCCF:12:1,2011-02-08T11:00:00Z,26.4966,-82.1479,1.99,32.39,1111122 
SCCF RECON,ioos:station:SCCF:12:1,2011-02-08T12:00:00Z,26.4966,-82.1479,1.901,32.39,1111122 
SCCF RECON,ioos:station:SCCF:12:1,2011-02-08T13:00:00Z,26.4966,-82.1479,1.828,32.38,1111122 
SCCF RECON,ioos:station:SCCF:12:1,2011-02-08T14:00:00Z,26.4966,-82.1479,1.793,32.38,1111122 
SCCF RECON,ioos:station:SCCF:12:1,2011-02-08T15:00:00Z,26.4966,-82.1479,1.808,32.39,1111122 
SCCF RECON,ioos:station:SCCF:12:1,2011-02-08T16:00:00Z,26.4966,-82.1479,1.88,32.36,1111122 
SCCF RECON,ioos:station:SCCF:12:1,2011-02-08T17:00:00Z,26.4966,-82.1479,1.99,32.35,1111122 
SCCF RECON,ioos:station:SCCF:12:1,2011-02-08T18:00:00Z,26.4966,-82.1479,2.087,32.36,1111122 
SCCF RECON,ioos:station:SCCF:12:1,2011-02-08T19:00:00Z,26.4966,-82.1479,2.171,32.36,1111122 
SCCF RECON,ioos:station:SCCF:12:1,2011-02-08T20:00:00Z,26.4966,-82.1479,2.224,32.37,1111122 
SCCF RECON,ioos:station:SCCF:12:1,2011-02-08T21:00:00Z,26.4966,-82.1479,2.211,32.43,1111122 
SCCF RECON,ioos:station:SCCF:12:1,2011-02-08T22:00:00Z,26.4966,-82.1479,2.156,32.52,1111122 
SCCF RECON,ioos:station:SCCF:12:1,2011-02-08T23:00:00Z,26.4966,-82.1479,2.082,32.56,1111122 
SCCF RECON,ioos:station:SCCF:12:1,2011-02-09T00:00:00Z,26.4966,-82.1479,2.018,32.54,1111122 
SCCF RECON,ioos:station:SCCF:12:1,2011-02-09T01:00:00Z,26.4966,-82.1479,1.95,32.68,1111122 
SCCF RECON,ioos:station:SCCF:12:1,2011-02-09T02:00:00Z,26.4966,-82.1479,1.872,32.72,1111122 
SCCF RECON,ioos:station:SCCF:12:1,2011-02-09T03:00:00Z,26.4966,-82.1479,1.796,32.66,1111122 
SCCF RECON,ioos:station:SCCF:12:1,2011-02-09T04:00:00Z,26.4966,-82.1479,1.732,32.73,1111122 
SCCF RECON,ioos:station:SCCF:12:1,2011-02-09T05:00:00Z,26.4966,-82.1479,1.709,32.62,1111122 
SCCF RECON,ioos:station:SCCF:12:1,2011-02-09T06:00:00Z,26.4966,-82.1479,1.751,32.67,1111122 
SCCF RECON,ioos:station:SCCF:12:1,2011-02-09T07:00:00Z,26.4966,-82.1479,1.836,32.71,1111122 
SCCF RECON,ioos:station:SCCF:12:1,2011-02-09T08:00:00Z,26.4966,-82.1479,1.901,32.64,1111122 
SCCF RECON,ioos:station:SCCF:12:1,2011-02-09T09:00:00Z,26.4966,-82.1479,1.946,32.59,1111122 
SCCF RECON,ioos:station:SCCF:12:1,2011-02-09T10:00:00Z,26.4966,-82.1479,1.94,32.55,1111122 
SCCF RECON,ioos:station:SCCF:12:1,2011-02-09T11:00:00Z,26.4966,-82.1479,1.893,32.52,1111122 
SCCF RECON,ioos:station:SCCF:12:1,2011-02-09T12:00:00Z,26.4966,-82.1479,1.849,32.59,1111122 
SCCF RECON,ioos:station:SCCF:12:1,2011-02-09T13:00:00Z,26.4966,-82.1479,1.814,32.61,1111122 
SCCF RECON,ioos:station:SCCF:12:1,2011-02-09T14:00:00Z,26.4966,-82.1479,1.78,32.64,1111122 
SCCF RECON,ioos:station:SCCF:12:1,2011-02-09T15:00:00Z,26.4966,-82.1479,1.774,32.61,1111122 
SCCF RECON,ioos:station:SCCF:12:1,2011-02-09T16:00:00Z,26.4966,-82.1479,1.826,32.59,1111122 
SCCF RECON,ioos:station:SCCF:12:1,2011-02-09T17:00:00Z,26.4966,-82.1479,1.902,32.5,1111122 
SCCF RECON,ioos:station:SCCF:12:1,2011-02-09T18:00:00Z,26.4966,-82.1479,1.988,32.6,1111122 
SCCF RECON,ioos:station:SCCF:12:1,2011-02-09T19:00:00Z,26.4966,-82.1479,2.072,32.69,1111122 
SCCF RECON,ioos:station:SCCF:12:1,2011-02-09T20:00:00Z,26.4966,-82.1479,2.16,32.62,1111122 
SCCF RECON,ioos:station:SCCF:12:1,2011-02-09T21:00:00Z,26.4966,-82.1479,2.189,32.72,1111122 
SCCF RECON,ioos:station:SCCF:12:1,2011-02-09T22:00:00Z,26.4966,-82.1479,2.19,32.59,1111122 
SCCF RECON,ioos:station:SCCF:12:1,2011-02-09T23:00:00Z,26.4966,-82.1479,2.16,32.49,1111122 
SCCF RECON,ioos:station:SCCF:12:1,2011-02-10T00:00:00Z,26.4966,-82.1479,2.09,32.47,1111122 
SCCF RECON,ioos:station:SCCF:12:1,2011-02-10T01:00:00Z,26.4966,-82.1479,2.027,32.47,1111122 
SCCF RECON,ioos:station:SCCF:12:1,2011-02-10T02:00:00Z,26.4966,-82.1479,1.939,32.48,1111122 
SCCF RECON,ioos:station:SCCF:12:1,2011-02-10T03:00:00Z,26.4966,-82.1479,1.84,32.48,1111122 
SCCF RECON,ioos:station:SCCF:12:1,2011-02-10T04:00:00Z,26.4966,-82.1479,1.75,32.49,1111122 
SCCF RECON,ioos:station:SCCF:12:1,2011-02-10T05:00:00Z,26.4966,-82.1479,1.71,32.53,1111122 
SCCF RECON,ioos:station:SCCF:12:1,2011-02-10T06:00:00Z,26.4966,-82.1479,1.75,32.64,1111122 
SCCF RECON,ioos:station:SCCF:12:1,2011-02-10T07:00:00Z,26.4966,-82.1479,1.83,32.61,1111122 
SCCF RECON,ioos:station:SCCF:12:1,2011-02-10T08:00:00Z,26.4966,-82.1479,1.909,32.62,1111122 
SCCF RECON,ioos:station:SCCF:12:1,2011-02-10T09:00:00Z,26.4966,-82.1479,1.95,32.61,1111122 
SCCF RECON,ioos:station:SCCF:12:1,2011-02-10T10:00:00Z,26.4966,-82.1479,1.98,32.59,1111122 
SCCF RECON,ioos:station:SCCF:12:1,2011-02-10T11:00:00Z,26.4966,-82.1479,1.97,32.6,1111122 
SCCF RECON,ioos:station:SCCF:12:1,2011-02-10T12:00:00Z,26.4966,-82.1479,1.978,32.58,1111122 
SCCF RECON,ioos:station:SCCF:12:1,2011-02-10T13:00:00Z,26.4966,-82.1479,1.99,32.56,1111122 
SCCF RECON,ioos:station:SCCF:12:1,2011-02-10T14:00:00Z,26.4966,-82.1479,1.991,32.53,1111122 
SCCF RECON,ioos:station:SCCF:12:1,2011-02-10T15:00:00Z,26.4966,-82.1479,2.01,32.5,1111122 
SCCF RECON,ioos:station:SCCF:12:1,2011-02-10T16:00:00Z,26.4966,-82.1479,2.038,32.51,1111122 
SCCF RECON,ioos:station:SCCF:12:1,2011-02-10T17:00:00Z,26.4966,-82.1479,2.1,32.53,1111122 
SCCF RECON,ioos:station:SCCF:12:1,2011-02-10T18:00:00Z,26.4966,-82.1479,2.148,32.54,1111122 
SCCF RECON,ioos:station:SCCF:12:1,2011-02-10T19:00:00Z,26.4966,-82.1479,2.15,32.56,1111122 
SCCF RECON,ioos:station:SCCF:12:1,2011-02-10T20:00:00Z,26.4966,-82.1479,2.198,32.55,1111122 
SCCF RECON,ioos:station:SCCF:12:1,2011-02-10T21:00:00Z,26.4966,-82.1479,2.261,32.6,1111122 
SCCF RECON,ioos:station:SCCF:12:1,2011-02-10T22:00:00Z,26.4966,-82.1479,2.34,32.6,1111122 
SCCF RECON,ioos:station:SCCF:12:1,2011-02-10T23:00:00Z,26.4966,-82.1479,2.357,32.59,1111122 
SCCF RECON,ioos:station:SCCF:12:1,2011-02-11T00:00:00Z,26.4966,-82.1479,2.244,32.59,1111122 
SCCF RECON,ioos:station:SCCF:12:1,2011-02-11T01:00:00Z,26.4966,-82.1479,2.11,32.6,1111122 
SCCF RECON,ioos:station:SCCF:12:1,2011-02-11T02:00:00Z,26.4966,-82.1479,1.989,32.6,1111122 
SCCF RECON,ioos:station:SCCF:12:1,2011-02-11T03:00:00Z,26.4966,-82.1479,1.89,32.6,1111122 
SCCF RECON,ioos:station:SCCF:12:1,2011-02-11T04:00:00Z,26.4966,-82.1479,1.82,32.6,1111122 
SCCF RECON,ioos:station:SCCF:12:1,2011-02-11T05:00:00Z,26.4966,-82.1479,1.77,32.6,1111122 
SCCF RECON,ioos:station:SCCF:12:1,2011-02-11T06:00:00Z,26.4966,-82.1479,1.73,32.57,1111122 
SCCF RECON,ioos:station:SCCF:12:1,2011-02-11T07:00:00Z,26.4966,-82.1479,1.7,32.55,1111122 
SCCF RECON,ioos:station:SCCF:12:1,2011-02-11T08:00:00Z,26.4966,-82.1479,1.706,32.55,1111122 
SCCF RECON,ioos:station:SCCF:12:1,2011-02-11T09:00:00Z,26.4966,-82.1479,1.768,32.56,1111122 
SCCF RECON,ioos:station:SCCF:12:1,2011-02-11T10:00:00Z,26.4966,-82.1479,1.841,32.55,1111122 
SCCF RECON,ioos:station:SCCF:12:1,2011-02-11T11:00:00Z,26.4966,-82.1479,1.91,32.55,1111122 
SCCF RECON,ioos:station:SCCF:12:1,2011-02-11T12:00:00Z,26.4966,-82.1479,1.98,32.55,1111122 
SCCF RECON,ioos:station:SCCF:12:1,2011-02-11T13:00:00Z,26.4966,-82.1479,2.027,32.54,1111122 
SCCF RECON,ioos:station:SCCF:12:1,2011-02-11T14:00:00Z,26.4966,-82.1479,2.036,32.55,1111122 
SCCF RECON,ioos:station:SCCF:12:1,2011-02-11T15:00:00Z,26.4966,-82.1479,2.02,32.56,1111122 
SCCF RECON,ioos:station:SCCF:12:1,2011-02-11T16:00:00Z,26.4966,-82.1479,1.996,32.56,1111122 
SCCF RECON,ioos:station:SCCF:12:1,2011-02-11T17:00:00Z,26.4966,-82.1479,1.99,32.57,1111122 